Brookings, SD

7:23 AM CDT on July 25, 2017 (GMT -0500)
Brookings Municipal

Weather History for KBKX - January, 2013

Change the Weather History Date:

Tuesday, January 29, 2013

  Actual Average Record
Temperature  
Mean Temperature 24 °F -  
Max Temperature 30 °F 23 °F 37 °F (2016)
Min Temperature 19 °F 8 °F -14 °F (2004)
Degree Days  
Heating Degree Days 40    
Moisture  
Dew Point 23 °F    
Average Humidity 89    
Maximum Humidity 100    
Minimum Humidity 80    
Precipitation  
Precipitation 0.00 in - - ()
Sea Level Pressure  
Sea Level Pressure 29.71 in    
Wind  
Wind Speed 12 mph (North)    
Max Wind Speed 25 mph    
Max Gust Speed 29 mph    
Visibility 7 miles    
Events      
Averages and records for this station are not official NWS values.
T = Trace of Precipitation, MM = Missing Value Source: NWS Daily Summary

Daily Weather History Graph

Daily Weather History Graph

Search for Another Location

Airport or City:

Trip Planner

Search our weather history database for the weather conditions in past years. The results will help you decide how hot, cold, wet, or windy it might be!

Date:

Astronomy

Jan. 29, 2013 Rise Set
Actual Time 7:48 AM CST 5:33 PM CST
Civil Twilight 7:17 AM CST 6:04 PM CST
Nautical Twilight 6:42 AM CST 6:39 PM CST
Astronomical Twilight 6:08 AM CST 7:13 PM CST
Moon 8:39 PM CST (1/29) 8:38 AM CST (1/29)
Length of Visible Light 10h 47m
Length of Day
9h 44m
Waning Gibbous, 93% of the Moon is Illuminated
Jan 29
Waning Gibbous
Feb 3
Last Quarter
Feb 10
New
Feb 17
First Quarter
Feb 25
Full

Hourly Weather History & Observations

Time (CST) Temp. Windchill Dew Point Humidity Pressure Visibility Wind Dir Wind Speed Gust Speed Precip Events Conditions
12:15 AM 30.2 °F 19.8 °F 28.4 °F 93% 29.60 in 3.0 mi NNE 13.8 mph - N/A   Overcast
12:35 AM 30.2 °F 20.8 °F 30.2 °F 100% 29.65 in 1.8 mi North 11.5 mph - N/A   Overcast
12:55 AM 30.2 °F 20.8 °F 30.2 °F 100% 29.63 in 1.5 mi North 11.5 mph - N/A   Overcast
1:15 AM 30.2 °F 21.9 °F 28.4 °F 93% 29.62 in 2.5 mi North 9.2 mph - N/A   Overcast
1:35 AM 30.2 °F 20.2 °F 28.4 °F 93% 29.61 in 2.5 mi North 12.7 mph - N/A   Overcast
1:55 AM 28.4 °F 18.0 °F 28.4 °F 100% 29.62 in 5.0 mi North 12.7 mph - N/A   Overcast
2:15 AM 28.4 °F 18.0 °F 28.4 °F 100% 29.63 in 10.0 mi North 12.7 mph - N/A   Overcast
2:35 AM 28.4 °F 19.1 °F 28.4 °F 100% 29.63 in 10.0 mi North 10.4 mph - N/A   Overcast
2:55 AM 28.4 °F 19.1 °F 26.6 °F 93% 29.63 in 10.0 mi North 10.4 mph - N/A   Overcast
3:15 AM 28.4 °F 17.5 °F 26.6 °F 93% 29.63 in 8.0 mi North 13.8 mph - N/A   Overcast
3:35 AM 26.6 °F 17.5 °F 26.6 °F 100% 29.63 in 5.0 mi NNW 9.2 mph - N/A   Overcast
3:55 AM 26.6 °F 16.2 °F 24.8 °F 93% 29.62 in 5.0 mi NNW 11.5 mph - N/A   Overcast
4:15 AM 26.6 °F 15.7 °F 24.8 °F 93% 29.62 in 7.0 mi NNW 12.7 mph - N/A   Mostly Cloudy
4:35 AM 24.8 °F 14.6 °F 24.8 °F 100% 29.63 in 7.0 mi NNW 10.4 mph - N/A   Mostly Cloudy
4:55 AM 24.8 °F 14.0 °F 23.0 °F 93% 29.63 in 8.0 mi NNW 11.5 mph - N/A   Overcast
5:15 AM 24.8 °F 13.4 °F 23.0 °F 93% 29.63 in 8.0 mi NNW 12.7 mph - N/A   Overcast
5:35 AM 24.8 °F 13.4 °F 24.8 °F 100% 29.62 in 8.0 mi NNW 12.7 mph - N/A   Overcast
5:55 AM 26.6 °F 15.7 °F 24.8 °F 93% 29.65 in 8.0 mi NNW 12.7 mph - N/A   Overcast
6:15 AM 26.6 °F 16.2 °F 24.8 °F 93% 29.66 in 9.0 mi North 11.5 mph - N/A   Overcast
6:35 AM 26.6 °F 15.7 °F 24.8 °F 93% 29.66 in 8.0 mi North 12.7 mph - N/A   Overcast
6:55 AM 26.6 °F 16.2 °F 26.6 °F 100% 29.67 in 8.0 mi North 11.5 mph - N/A   Overcast
7:15 AM 26.6 °F 15.7 °F 26.6 °F 100% 29.67 in 10.0 mi NNW 12.7 mph - N/A   Overcast
7:35 AM 26.6 °F 14.7 °F 24.8 °F 93% 29.68 in 10.0 mi NNW 15.0 mph 19.6 mph N/A   Overcast
7:55 AM 26.6 °F 15.7 °F 24.8 °F 93% 29.68 in 7.0 mi North 12.7 mph - N/A   Overcast
8:15 AM 26.6 °F 16.8 °F 24.8 °F 93% 29.67 in 6.0 mi North 10.4 mph - N/A   Overcast
8:35 AM 26.6 °F 17.5 °F 26.6 °F 100% 29.68 in 5.0 mi NNW 9.2 mph - N/A   Overcast
8:55 AM 26.6 °F 18.2 °F 24.8 °F 93% 29.69 in 5.0 mi NNW 8.1 mph - N/A   Overcast
9:15 AM 26.6 °F 18.2 °F 26.6 °F 100% 29.71 in 5.0 mi NNW 8.1 mph - N/A   Overcast
9:35 AM 28.4 °F 19.7 °F 26.6 °F 93% 29.71 in 5.0 mi NNW 9.2 mph - N/A   Overcast
9:55 AM 28.4 °F 19.7 °F 26.6 °F 93% 29.71 in 5.0 mi NNW 9.2 mph - N/A   Overcast
10:15 AM 28.4 °F 17.5 °F 24.8 °F 86% 29.70 in 5.0 mi NNW 13.8 mph - N/A   Overcast
10:35 AM 28.4 °F 18.0 °F 24.8 °F 86% 29.71 in 5.0 mi NNW 12.7 mph - N/A   Mostly Cloudy
10:55 AM 28.4 °F 19.7 °F 24.8 °F 86% 29.71 in 5.0 mi NNW 9.2 mph - N/A   Partly Cloudy
11:15 AM 28.4 °F 19.7 °F 24.8 °F 86% 29.71 in 5.0 mi North 9.2 mph - N/A   Clear
11:35 AM 28.4 °F 21.2 °F 24.8 °F 86% 29.72 in 6.0 mi North 6.9 mph - N/A   Clear
11:55 AM 28.4 °F 20.4 °F 24.8 °F 86% 29.71 in 6.0 mi North 8.1 mph - N/A   Clear
12:15 PM 28.4 °F 18.5 °F 24.8 °F 86% 29.71 in 7.0 mi North 11.5 mph - N/A   Clear
12:35 PM 28.4 °F 19.1 °F 24.8 °F 86% 29.71 in 7.0 mi North 10.4 mph - N/A   Clear
12:55 PM 28.4 °F 19.7 °F 23.0 °F 80% 29.72 in 7.0 mi North 9.2 mph - N/A   Clear
1:15 PM 28.4 °F 19.1 °F 23.0 °F 80% 29.70 in 7.0 mi North 10.4 mph - N/A   Clear
1:35 PM 28.4 °F 19.7 °F 23.0 °F 80% 29.70 in 8.0 mi North 9.2 mph - N/A   Clear
1:55 PM 28.4 °F 20.4 °F 23.0 °F 80% 29.70 in 8.0 mi North 8.1 mph - N/A   Clear
2:15 PM 28.4 °F 20.4 °F 23.0 °F 80% 29.71 in 8.0 mi North 8.1 mph - N/A   Clear
2:35 PM 28.4 °F 19.7 °F 23.0 °F 80% 29.71 in 8.0 mi North 9.2 mph - N/A   Clear
2:55 PM 28.4 °F 19.7 °F 23.0 °F 80% 29.72 in 8.0 mi North 9.2 mph - N/A   Partly Cloudy
3:15 PM 28.4 °F 19.1 °F 23.0 °F 80% 29.72 in 8.0 mi North 10.4 mph - N/A   Clear
3:35 PM 28.4 °F 18.0 °F 23.0 °F 80% 29.72 in 8.0 mi North 12.7 mph - N/A   Clear
3:55 PM 26.6 °F 15.7 °F 21.2 °F 80% 29.73 in 6.0 mi North 12.7 mph - N/A   Clear
4:15 PM 26.6 °F 16.2 °F 21.2 °F 80% 29.73 in 5.0 mi NNE 11.5 mph - N/A   Scattered Clouds
4:35 PM 24.8 °F 12.9 °F 21.2 °F 86% 29.73 in 5.0 mi North 13.8 mph - N/A   Mostly Cloudy
4:55 PM 23.0 °F 11.7 °F 19.4 °F 86% 29.73 in 5.0 mi North 11.5 mph - N/A   Mostly Cloudy
5:15 PM 21.2 °F 9.5 °F 17.6 °F 86% 29.74 in 5.0 mi NNE 11.5 mph - N/A   Mostly Cloudy
5:35 PM 19.4 °F 5.0 °F 15.8 °F 86% 29.74 in 7.0 mi North 16.1 mph - N/A   Mostly Cloudy
5:55 PM 19.4 °F 5.5 °F 15.8 °F 86% 29.77 in 8.0 mi North 15.0 mph - N/A   Mostly Cloudy
6:15 PM 19.4 °F 6.6 °F 15.8 °F 86% 29.77 in 10.0 mi North 12.7 mph - N/A   Partly Cloudy
6:35 PM 19.4 °F 5.5 °F 15.8 °F 86% 29.79 in 10.0 mi North 15.0 mph - N/A   Clear
6:55 PM 19.4 °F 6.6 °F 15.8 °F 86% 29.80 in 10.0 mi North 12.7 mph - N/A   Clear
7:15 PM 19.4 °F 6.6 °F 17.6 °F 93% 29.79 in 10.0 mi North 12.7 mph - N/A   Mostly Cloudy
7:35 PM 19.4 °F 6.6 °F 17.6 °F 93% 29.81 in 10.0 mi North 12.7 mph 16.1 mph N/A   Overcast
7:55 PM 19.4 °F 6.6 °F 17.6 °F 93% 29.81 in 10.0 mi North 12.7 mph - N/A   Overcast
8:15 PM 21.2 °F 8.9 °F 17.6 °F 86% 29.83 in 10.0 mi North 12.7 mph - N/A   Overcast
8:35 PM 21.2 °F 8.3 °F 17.6 °F 86% 29.82 in 10.0 mi North 13.8 mph 19.6 mph N/A   Overcast
8:55 PM 21.2 °F 6.8 °F 17.6 °F 86% 29.82 in 10.0 mi North 17.3 mph - N/A   Overcast
9:15 PM 21.2 °F 6.8 °F 17.6 °F 86% 29.82 in 10.0 mi North 17.3 mph 23.0 mph N/A   Overcast
9:35 PM 21.2 °F 7.8 °F 17.6 °F 86% 29.82 in 10.0 mi North 15.0 mph - N/A   Overcast
9:55 PM 21.2 °F 6.4 °F 17.6 °F 86% 29.83 in 10.0 mi North 18.4 mph - N/A   Overcast
10:15 PM 21.2 °F 6.4 °F 17.6 °F 86% 29.83 in 9.0 mi North 18.4 mph 25.3 mph N/A   Overcast
10:35 PM 21.2 °F 5.6 °F 17.6 °F 86% 29.83 in 8.0 mi North 20.7 mph 24.2 mph N/A   Overcast
10:55 PM 21.2 °F 4.9 °F 17.6 °F 86% 29.80 in 10.0 mi North 23.0 mph 28.8 mph N/A   Overcast
11:15 PM 21.2 °F 5.2 °F 17.6 °F 86% 29.80 in 10.0 mi North 21.9 mph 26.5 mph N/A   Overcast
11:35 PM 21.2 °F 4.2 °F 17.6 °F 86% 29.81 in 10.0 mi North 25.3 mph - N/A   Overcast
11:55 PM 21.2 °F 7.3 °F 17.6 °F 86% 29.82 in 9.0 mi North 16.1 mph 21.9 mph N/A   Overcast